Location: Unspecified
(52.1384°N, 8.6525°W)
Time: 17:40:41
(UTC+00:00)

N. Korean satellite - Pass Details

Date: 05 November 2020
Orbit: 453 x 503 km, 97.2° (Epoch: 04 December)

Event Time Altitude Azimuth Distance (km) Brightness Sun altitude
Rises 06:07:33 0° 15° (NNE) 2,482 10.3 -14.1°
Reaches altitude 10° 06:09:36 10° 18° (NNE) 1,604 9.3 -13.7°
Maximum altitude 06:13:01 66° 102° (ESE) 502 6.8 -13.2°
Drops below altitude 10° 06:16:26 10° 185° (S) 1,600 9.2 -12.7°
Sets 06:18:29 0° 188° (S) 2,474 10.2 -12.4°
